DW0000 Weather Reports


time (UTC)temp
F
wind
direction
speed
knots
gust
knots
rain 1hr
in
rain 24hr
in
rain mn
in
humidity
%
barometer
mb
20260509193504 58 249 17.4 24.3 0.00 0.15 0.03 86 1003.5
20260509192506 57 256 13.9 20.9 0.00 0.15 0.03 88 1003.5
20260509191505 58 256 7.8 20.9 0.00 0.15 0.03 87 1003.7
20260509190507 57 245 10.4 21.7 0.03 0.15 0.03 87 1003.3
20260509185006 56 252 12.2 21.7 0.02 0.15 0.02 91 1003.3
20260509184504 56 254 11.3 20.0 0.02 0.15 0.02 91 1003.2
20260509184004 56 250 13.0 18.2 0.02 0.15 0.02 91 1003.0
20260509183006 55 255 9.6 14.8 0.02 0.15 0.02 90 1003.1
20260509181506 56 248 9.6 19.1 0.02 0.15 0.02 89 1003.5
20260509180506 57 223 12.2 18.2 0.00 0.12 0.00 86 1003.3
20260509180006 57 251 13.0 21.7 0.00 0.13 0.00 85 1003.2
20260509175005 57 232 16.5 25.2 0.00 0.16 0.00 86 1003.5
20260509174004 58 249 17.4 30.4 0.00 0.16 0.00 82 1003.3
20260509173504 58 250 11.3 18.2 0.00 0.16 0.00 79 1003.3
20260509173006 58 255 10.4 20.0 0.00 0.16 0.00 79 1003.1
20260509171506 58 242 13.0 24.3 0.00 0.16 0.00 80 1003.0
20260509170504 58 244 14.8 26.1 0.00 0.16 0.00 79 1002.9
20260509170006 58 242 14.8 20.0 0.00 0.16 0.00 79 1003.1
20260509165007 58 238 13.0 20.0 0.00 0.16 0.00 79 1002.9
20260509164507 58 253 12.2 19.1 0.00 0.16 0.00 79 1003.0
20260509163508 58 249 11.3 17.4 0.00 0.16 0.00 78 1002.9
20260509162506 58 254 13.0 26.9 0.00 0.16 0.00 76 1002.7
20260509162008 58 243 12.2 20.0 0.00 0.16 0.00 77 1002.6
20260509161007 57 236 14.8 25.2 0.00 0.16 0.00 76 1002.9
20260509160506 57 253 13.9 20.9 0.00 0.16 0.00 77 1002.7
20260509155506 58 243 12.2 20.0 0.00 0.16 0.00 77 1002.8
20260509154508 58 254 13.0 20.9 0.00 0.16 0.00 79 1002.8
20260509151506 58 237 12.2 20.9 0.00 0.16 0.00 79 1003.0
20260509151007 58 239 13.9 18.2 0.00 0.16 0.00 78 1002.8
20260509150506 58 250 10.4 20.0 0.00 0.16 0.00 78 1003.0
20260509150008 58 251 12.2 20.9 0.00 0.16 0.00 79 1003.1
20260509145007 58 252 9.6 15.6 0.00 0.16 0.00 80 1003.1
20260509142007 57 241 10.4 18.2 0.00 0.16 0.00 81 1003.6
20260509141507 57 258 9.6 14.8 0.00 0.16 0.00 81 1003.3
20260509141008 58 243 10.4 15.6 0.00 0.16 0.00 80 1003.3
20260509140007 58 257 8.7 19.1 0.00 0.16 0.00 80 1003.3
20260509134508 57 245 10.4 18.2 0.00 0.16 0.00 80 1003.4
20260509134006 57 243 12.2 17.4 0.00 0.16 0.00 80 1003.4
20260509133506 57 252 7.8 13.9 0.00 0.16 0.00 82 1003.4
20260509133008 57 239 9.6 18.2 0.00 0.16 0.00 83 1003.2
20260509132506 57 244 10.4 15.6 0.00 0.16 0.00 82 1003.1
20260509131506 57 245 8.7 14.8 0.00 0.16 0.00 82 1003.0
20260509131008 57 241 12.2 18.2 0.00 0.16 0.00 82 1003.3
20260509124508 58 244 7.0 13.0 0.00 0.16 0.00 85 1003.4
20260509124008 58 236 8.7 13.9 0.00 0.16 0.00 85 1003.4
20260509123507 58 242 9.6 17.4 0.00 0.16 0.00 85 1003.4
20260509122506 57 245 7.8 14.8 0.00 0.17 0.00 86 1003.4
20260509121506 57 236 8.7 17.4 0.00 0.17 0.00 88 1003.5
20260509120506 57 240 7.8 15.6 0.00 0.18 0.00 90 1003.7
20260509120008 57 252 7.8 14.8 0.00 0.19 0.00 90 1003.7
20260509114508 58 246 10.4 17.4 0.00 0.20 0.19 88 1003.7
20260509114006 58 230 10.4 18.2 0.00 0.20 0.19 88 1003.8
20260509112506 58 234 7.8 18.2 0.00 0.21 0.19 90 1003.9
20260509111006 58 262 6.1 11.3 0.00 0.23 0.19 91 1003.6
20260509103506 57 254 10.4 13.0 0.00 0.41 0.19 94 1003.3
20260509102006 57 266 6.1 11.3 0.00 0.43 0.19 96 1003.2
20260509101505 57 249 6.1 7.8 0.00 0.43 0.19 96 1003.3
20260509100006 57 283 3.5 10.4 0.00 0.43 0.19 95 1003.3
20260509095008 57 301 2.6 7.0 0.00 0.43 0.19 95 1003.3
20260509094506 56 315 4.3 7.0 0.00 0.43 0.19 95 1003.0
20260509093508 56 318 4.3 7.0 0.00 0.43 0.19 95 1003.3
20260509091006 57 273 2.6 4.3 0.00 0.44 0.19 95 1003.4
20260509083506 57 318 7.8 8.7 0.00 0.46 0.19 94 1003.6
20260509083006 57 320 6.1 7.8 0.00 0.46 0.19 94 1003.6
20260509081506 58 318 7.8 8.7 0.00 0.46 0.19 94 1003.5
20260509080506 58 318 6.1 7.0 0.00 0.46 0.19 94 1003.1
20260509074005 58 262 6.1 15.6 0.00 0.48 0.19 95 1003.6
20260509072008 59 324 4.3 7.8 0.00 0.48 0.18 94 1003.3
20260509071506 59 322 5.2 7.8 0.00 0.48 0.18 95 1003.0
20260509071007 59 322 4.3 7.0 0.00 0.48 0.18 95 1003.2
20260509065506 59 290 4.3 7.0 0.00 0.49 0.18 94 1003.3
20260509065007 59 289 4.3 7.0 0.00 0.49 0.18 94 1003.1
20260509064506 59 282 3.5 5.2 0.00 0.49 0.18 94 1003.1
20260509063508 59 319 7.0 8.7 0.00 0.49 0.18 94 1003.1
20260509063017 59 320 7.0 8.7 0.00 0.49 0.18 94 1003.0
20260509061506 59 314 8.7 11.3 0.00 0.50 0.18 94 1002.9
20260509060507 59 316 7.8 14.8 0.00 0.50 0.18 94 1002.8
20260509060006 59 314 9.6 13.0 0.00 0.51 0.18 94 1002.8
20260509055506 59 313 9.6 11.3 0.01 0.51 0.18 94 1003.0
20260509054507 59 314 10.4 13.9 0.02 0.52 0.18 94 1002.9
20260509054006 59 313 7.8 12.2 0.02 0.52 0.18 93 1002.9
20260509053505 59 315 8.7 11.3 0.02 0.52 0.18 93 1002.9
20260509053007 59 316 6.1 10.4 0.03 0.52 0.18 93 1002.9
20260509052507 59 321 4.3 8.7 0.02 0.52 0.18 93 1003.0
20260509052005 59 319 6.1 8.7 0.02 0.52 0.18 93 1003.0
20260509050006 59 306 6.1 12.2 0.03 0.53 0.18 92 1002.8
20260509045007 60 267 7.0 13.9 0.02 0.52 0.16 92 1002.8
20260509044006 60 341 8.7 11.3 0.02 0.51 0.16 91 1003.0
20260509043507 60 338 7.8 8.7 0.02 0.51 0.16 91 1002.8
20260509043006 60 336 5.2 7.0 0.02 0.51 0.15 91 1002.9
20260509040505 60 309 4.3 7.8 0.06 0.51 0.15 91 1003.3
20260509035507 61 264 7.0 12.2 0.05 0.50 0.15 90 1003.4
20260509035005 61 277 5.2 12.2 0.04 0.50 0.14 90 1003.2
20260509034505 61 267 5.2 8.7 0.04 0.49 0.14 89 1003.3
20260509033505 62 291 5.2 18.2 0.04 0.49 0.13 87 1003.6
20260509032507 63 308 17.4 20.0 0.00 0.46 0.10 84 1003.6
20260509031007 64 313 17.4 20.0 0.00 0.45 0.10 83 1003.6
20260509030005 65 309 10.4 15.6 0.00 0.45 0.10 83 1003.6
20260509025506 66 301 9.6 14.8 0.00 0.45 0.10 84 1003.5
20260509025007 65 306 10.4 17.4 0.00 0.45 0.10 84 1003.4
20260509024505 65 314 11.3 19.1 0.00 0.45 0.10 82 1003.6
20260509024005 65 318 14.8 21.7 0.00 0.45 0.10 82 1003.8
20260509023506 66 312 13.9 20.0 0.00 0.45 0.10 81 1003.8
20260509022505 66 309 12.2 20.0 0.00 0.45 0.10 83 1003.6
20260509015504 67 307 13.9 20.0 0.00 0.45 0.10 79 1003.7
20260509015006 67 305 13.0 19.1 0.00 0.45 0.10 80 1003.6
20260509014007 67 309 13.9 17.4 0.00 0.45 0.10 78 1003.7
20260509013006 67 311 14.8 19.1 0.00 0.45 0.10 79 1003.6
20260509012505 67 303 12.2 20.0 0.00 0.45 0.10 78 1003.6
20260509012005 67 303 12.2 20.0 0.00 0.45 0.10 77 1003.6
20260509011507 67 306 14.8 20.0 0.00 0.45 0.10 78 1003.9
20260509010006 67 308 10.4 19.1 0.00 0.45 0.10 79 1003.9
20260509005505 67 304 13.0 21.7 0.00 0.45 0.10 79 1003.8
20260509004505 67 306 14.8 20.9 0.00 0.45 0.10 83 1004.3
20260509003505 67 315 16.5 19.1 0.00 0.45 0.10 85 1004.5
20260509002506 67 317 18.2 32.2 0.00 0.45 0.10 83 1004.5
20260509002006 67 304 8.7 18.2 0.00 0.45 0.10 84 1004.6
20260509001005 66 297 8.7 17.4 0.00 0.45 0.10 86 1005.0
20260509000006 66 314 15.6 21.7 0.00 0.45 0.10 85 1005.1
20260508235506 66 318 14.8 20.9 0.00 0.45 0.10 88 1005.4
20260508233506 64 310 13.0 18.2 0.04 0.45 0.10 92 1005.6
20260508233005 63 309 11.3 15.6 0.04 0.45 0.10 92 1005.5
20260508232505 63 311 12.2 15.6 0.04 0.45 0.10 92 1005.6
20260508232007 62 315 12.2 15.6 0.04 0.45 0.10 91 1005.7
20260508230505 62 312 7.8 13.9 0.04 0.45 0.10 89 1005.8
20260508230007 64 269 10.4 20.9 0.04 0.45 0.10 88 1006.0
20260508225505 65 308 11.3 22.6 0.04 0.45 0.10 89 1006.0
20260508224505 65 306 11.3 17.4 0.01 0.43 0.07 88 1005.9
20260508222007 65 318 21.7 25.2 0.00 0.42 0.06 86 1005.9
20260508221005 65 306 14.8 20.9 0.00 0.42 0.06 87 1005.9
20260508215505 65 313 14.8 20.0 0.00 0.42 0.06 87 1006.2
20260508215005 64 310 15.6 19.1 0.00 0.42 0.06 87 1005.9
20260508214006 64 310 16.5 21.7 0.00 0.42 0.06 88 1005.9
20260508213504 64 309 14.8 20.0 0.00 0.42 0.06 89 1005.8
20260508201505 61 322 15.6 20.9 0.00 0.42 0.06 97 1005.7
20260508201006 61 316 12.2 15.6 0.00 0.42 0.06 97 1005.7
20260508200004 61 321 12.2 15.6 0.00 0.42 0.06 97 1005.6
20260508195506 61 311 13.9 17.4 0.00 0.42 0.06 97 1005.6